DELTA 1 DEB

基本信息
目录编号:
8956
目录名称:
DELTA 1 DEB
国际标识:
1975-004AN
轨道中心:
EARTH
物体状态:
在轨
发射日期:
1975-01-22 UTC
轨道信息
数据来源: 国际轨道数据
星历时间: 2026-09-05T11:08:30+0800
半长轴: 6985.429km
偏心率: 0.0023749
轨道倾角: 98.370°
近地点辐角: 21.207°
升交点赤经: 78.958°
平近点角: 339.012°
近地点: 590.702km
远地点: 623.882km
周期: 96.839分钟
每日圈数: 14.870075
详细信息
发射场:
AFWTR
轨道高度:
LEO
数据来源:
AOE Integration Group
参考系:
TEME
时间系统:
UTC
历元类型:
SGP4
2D轨道图
3D轨道图
轨道高度分析图
轨道倾角分析图
轨道综合分析图
查看轨道综合分析图